Snowfall_Accumulation
0.0 0.0 0.0 0.0 0.0 0.0 0.0 0.0 0.0 0.0 0.0 0.0 0.0 0.0 0.0 0.0 0.0 0.0 0.0 0.0 0.0 0.0 0.0 0.0 0.0 0.0 0.0 0.0 0.0 0.0 0.0 0.0 0.0 0.0 0.0 0.0 0.0 0.0 0.0 0.0 0.0 0.0 0.0 0.0
0.0 0.0 0.0 0.0 0.0 0.0 0.0 0.2 0.9 0.0 0.0 0.0 0.0 0.0 0.0 0.0 0.0 0.0 0.0 0.0 0.0 0.0 0.0 0.0 0.0 0.0 0.0 0.0 0.0 0.0 0.0 0.0 0.0 0.0 0.0 0.0 0.0 0.0 0.0 0.0 0.0 0.0 0.0 0.0
0.0 0.0 0.0 0.0 0.0 0.0 0.0 0.1 0.1 0.2 0.0 0.0 0.0 0.2 0.0 0.0 0.0 0.0 0.0 0.0 0.0 0.0 0.0 0.0 0.0 0.0 0.0 0.0 0.0 0.0 0.0 0.0 0.0 0.0 0.0 0.0 0.0 0.0 0.0 0.0 0.0 0.0 0.0 0.0
0.0 0.0 0.0 0.0 0.0 0.0 0.1 0.0 0.0 0.1 2.3 6.8 0.1 8.2 0.1 0.0 0.0 0.0 0.0 0.0 0.0 0.0 0.0 0.0 0.0 0.0 0.0 0.0 0.0 0.0 0.0 0.0 0.0 0.0 0.0 0.0 0.0 0.0 0.0 0.0 0.0 0.0 0.0 0.0
0.0 0.0 0.0 0.0 0.0 0.0 0.1 0.0 0.0 0.0 1.3 3.3 2.5 4.9 0.0 0.0 0.0 0.0 0.0 0.0 0.0 0.0 0.0 0.0 0.0 0.0 0.0 0.0 0.0 0.0 0.0 0.0 0.0 0.0 0.0 0.0 0.0 0.0 0.0 0.0 0.0 0.0 0.0 0.0
0.0 0.0 0.0 0.0 0.0 0.0 0.0 0.0 0.0 0.1 1.3 15.8 1.1 1.3 0.2 0.0 0.0 0.0 0.0 0.0 0.0 0.0 0.0 0.0 0.0 0.0 0.0 0.0 0.0 0.0 0.0 0.0 0.0 0.0 0.0 0.0 0.0 0.0 0.0 0.0 0.0 0.0 0.0 0.0
0.0 0.0 0.0 0.0 0.0 0.0 0.0 0.2 9.6 12.5 18.2 5.9 0.0 1.6 0.2 0.0 0.0 0.0 0.0 0.0 0.0 0.0 0.0 0.0 0.0 0.0 0.0 0.0 0.0 0.0 0.0 0.0 0.0 0.0 0.0 0.0 0.0 0.0 0.0 0.0 0.0 0.0 0.0 0.0
1.2 2.0 0.0 0.0 0.0 0.0 0.0 0.3 3.7 8.1 4.2 1.6 0.1 4.1 0.0 0.0 0.0 0.0 0.0 0.0 0.0 0.0 0.0 0.0 0.0 0.0 0.0 0.0 0.0 0.0 0.0 0.0 0.0 0.0 0.0 0.0 0.0 0.0 0.0 0.0 0.0 0.0 0.0 0.0
0.5 0.1 0.0 0.0 0.0 0.0 0.0 0.4 0.0 4.9 4.2 4.2 1.7 0.0 0.0 0.0 0.0 0.0 0.0 0.0 0.0 0.0 0.0 0.0 0.0 0.0 0.0 0.0 0.0 0.0 0.0 0.0 0.0 0.0 0.0 0.0 0.0 0.0 0.0 0.0 0.0 0.0 0.0 0.0
0.1 1.0 0.0 0.0 0.0 0.0 0.0 0.0 2.7 3.9 11.8 6.7 2.7 1.2 0.3 0.0 0.0 0.0 0.0 0.0 0.0 0.0 0.0 0.0 0.0 0.0 0.0 0.0 0.0 0.0 0.0 0.0 0.0 0.0 0.0 0.0 0.0 0.0 0.0 0.0 0.0 0.0 0.0 0.0
0.0 0.7 0.1 0.0 0.1 0.4 0.3 0.4 0.1 0.9 2.1 4.0 2.5 1.3 0.1 0.7 0.3 0.1 0.0 0.0 0.0 0.0 0.0 0.0 0.0 0.0 0.0 0.0 0.0 0.0 0.0 0.0 0.0 0.0 0.0 0.0 0.0 0.0 0.0 0.0 0.0 0.0 0.0 0.0
0.0 0.4 4.6 0.2 0.0 0.0 0.1 0.1 0.1 4.2 1.7 0.9 1.7 1.4 0.0 0.0 0.1 0.1 0.1 0.0 0.0 0.0 0.0 0.0 0.0 0.0 0.0 0.0 0.0 0.0 0.0 0.0 0.0 0.0 0.0 0.0 0.0 0.0 0.0 0.0 0.0 0.0 0.0 0.0
0.2 3.8 10.5 5.2 3.0 0.1 0.0 0.1 0.1 0.3 0.6 2.0 8.1 1.2 0.0 0.0 0.0 0.0 0.1 0.1 0.0 0.0 0.0 0.0 0.0 0.0 0.0 0.0 0.0 0.0 0.0 0.0 0.0 0.0 0.0 0.0 0.0 0.0 0.0 0.0 0.0 0.0 0.0 0.0
nan 1.3 2.0 3.8 0.6 0.1 0.2 0.1 0.0 0.6 7.1 1.2 0.7 0.5 0.0 0.0 0.0 0.0 0.1 0.2 0.1 0.0 0.0 0.0 0.0 0.0 0.0 0.0 0.0 0.0 0.0 0.0 0.0 0.0 0.0 0.0 0.0 0.0 0.0 0.0 0.0 0.0 0.0 0.0
1.4 10.5 0.8 0.4 0.1 0.0 0.1 0.1 0.0 0.2 0.0 3.6 0.0 0.0 0.0 0.0 0.0 0.0 0.2 0.2 0.2 0.3 0.1 0.1 0.2 0.1 0.1 0.1 0.1 0.1 0.0 0.0 0.1 0.1 0.1 0.0 0.0 0.0 0.1 0.1 0.1 0.1 0.1 0.1
0.6 16.1 1.9 5.2 1.8 0.3 0.4 0.0 0.0 0.0 0.0 0.0 0.0 0.0 0.0 0.0 0.0 0.0 0.3 0.7 1.0 0.8 0.5 0.7 0.3 0.3 0.6 0.3 0.3 0.2 0.1 0.1 0.1 0.1 0.1 0.1 0.1 0.1 0.1 0.1 0.1 0.2 0.2 0.2
2.1 4.7 10.6 18.9 1.1 3.0 16.5 0.3 0.0 0.0 0.0 0.0 0.0 0.0 0.0 0.0 0.0 0.2 2.7 0.4 1.0 1.8 2.1 1.9 1.3 1.4 1.3 0.8 0.3 0.5 0.2 0.0 0.2 0.4 0.2 0.1 0.1 0.1 0.2 0.2 0.2 0.4 0.3 0.2
4.5 4.4 5.8 22.1 10.5 47.2 2.4 0.0 0.0 0.0 0.0 0.0 0.0 0.0 0.0 0.0 0.0 0.1 0.3 0.4 0.5 4.1 2.6 1.3 1.5 1.5 1.4 0.5 0.3 0.3 0.5 0.8 0.6 1.6 0.3 0.2 0.2 0.6 0.6 0.5 0.6 0.6 0.4 0.4
0.7 1.6 27.3 42.5 23.9 1.8 0.0 0.0 0.0 0.0 0.0 0.0 0.0 0.0 0.0 0.0 0.0 0.0 0.0 0.0 0.5 6.2 3.1 2.5 1.8 1.8 1.2 2.0 0.6 1.0 1.4 1.7 1.9 3.5 3.2 2.2 1.1 1.2 1.1 2.0 1.5 0.7 0.6 0.8
2.4 2.0 7.2 37.5 36.3 30.2 0.5 0.0 0.0 0.0 0.8 0.0 0.0 0.0 0.0 0.0 0.1 0.0 0.0 0.0 0.9 2.6 3.6 2.8 1.6 1.6 1.7 2.2 1.7 1.7 2.4 2.7 3.2 3.2 2.9 2.5 2.2 1.6 2.2 2.1 2.2 1.6 0.5 1.1
14.4 22.4 34.4 26.5 30.0 9.5 0.0 0.0 0.0 3.1 0.1 0.0 0.0 0.0 0.0 0.0 0.0 0.0 0.0 0.0 0.4 4.3 4.3 1.5 1.7 2.4 3.3 2.4 1.4 3.8 4.0 4.9 3.6 3.4 3.3 3.0 2.8 3.9 2.3 2.3 1.8 1.7 2.2 1.8
4.6 12.9 26.5 23.3 33.5 33.7 0.0 0.0 0.1 0.1 0.0 0.0 0.0 0.0 0.0 0.0 0.0 0.0 0.0 0.0 0.1 3.0 3.1 2.6 2.9 3.3 2.2 1.3 1.2 3.8 4.3 4.8 2.8 2.7 4.0 4.4 4.4 4.3 3.3 3.9 3.4 3.7 2.7 3.5
5.4 0.8 4.1 1.5 3.1 0.0 0.0 0.0 0.0 0.0 0.0 0.0 0.0 0.0 0.0 0.0 0.0 0.0 0.0 0.0 0.0 0.5 2.3 2.3 3.4 2.3 2.1 2.2 1.4 1.5 4.4 2.4 3.0 3.6 6.0 5.3 4.4 3.8 3.1 3.7 3.5 5.5 3.2 4.5
0.1 0.0 1.6 1.2 0.0 0.0 0.0 0.0 0.0 0.0 0.0 0.0 0.0 0.0 0.0 0.0 0.0 0.0 0.0 0.0 0.0 0.0 0.2 1.0 0.8 2.0 2.6 2.2 2.8 3.7 3.3 1.7 3.5 5.5 4.8 3.2 3.4 3.2 3.1 3.4 3.7 4.6 5.1 5.1
0.0 0.0 0.2 0.8 0.0 0.0 0.0 0.0 0.0 0.0 0.0 0.0 0.0 0.0 0.0 0.0 0.0 0.0 0.1 0.1 0.0 0.0 0.1 0.2 0.3 0.3 1.5 1.2 2.0 2.7 2.0 1.0 2.5 3.5 2.9 2.7 3.4 3.8 3.4 4.0 4.8 4.2 4.0 3.7
0.0 0.0 0.2 0.4 0.0 0.0 0.0 0.0 0.0 0.0 0.0 0.0 0.0 0.0 0.0 0.0 0.0 0.1 0.1 0.0 0.1 0.1 0.2 0.5 0.6 1.1 1.4 1.8 2.2 3.0 3.3 2.6 2.6 1.5 2.9 3.0 3.1 3.4 3.4 3.2 4.1 nan nan nan
Water_Equivalent
0.00 0.00 0.00 0.00 0.00 0.00 0.00 0.00 0.01 0.00 0.00 0.00 0.00 0.00 0.00 0.00 0.00 0.00 0.00 0.00 0.00 0.00 0.00 0.00 0.00 0.00 0.00 0.00 0.00 0.00 0.00 0.00 0.00 0.00 0.00 0.00 0.00 0.00 0.00 0.00 0.00 0.00 0.00 0.00
0.00 0.00 0.00 0.00 0.00 0.00 0.00 0.05 0.25 0.00 0.00 0.00 0.00 0.00 0.00 0.00 0.00 0.00 0.00 0.00 0.00 0.00 0.00 0.00 0.00 0.00 0.00 0.00 0.00 0.00 0.00 0.00 0.00 0.00 0.00 0.00 0.00 0.00 0.00 0.00 0.00 0.00 0.00 0.00
0.00 0.00 0.00 0.00 0.00 0.00 0.00 0.04 0.04 0.07 0.00 0.00 0.00 0.04 0.00 0.00 0.00 0.00 0.00 0.00 0.00 0.00 0.00 0.00 0.00 0.00 0.00 0.00 0.00 0.00 0.00 0.00 0.00 0.00 0.00 0.00 0.00 0.00 0.00 0.00 0.00 0.00 0.00 0.00
0.00 0.00 0.00 0.00 0.00 0.00 0.02 0.00 0.00 0.02 0.54 1.23 0.02 1.38 0.02 0.00 0.00 0.00 0.00 0.00 0.00 0.00 0.00 0.00 0.00 0.00 0.00 0.00 0.00 0.00 0.00 0.00 0.00 0.00 0.00 0.00 0.00 0.00 0.00 0.00 0.00 0.00 0.00 0.00
0.00 0.00 0.00 0.00 0.00 0.00 0.02 0.00 0.00 0.00 0.33 0.71 0.55 0.84 0.00 0.00 0.00 0.00 0.00 0.00 0.00 0.00 0.00 0.00 0.00 0.00 0.00 0.00 0.00 0.00 0.00 0.00 0.00 0.00 0.00 0.00 0.00 0.00 0.00 0.00 0.00 0.00 0.00 0.00
0.00 0.00 0.00 0.00 0.00 0.00 0.00 0.00 0.00 0.03 0.30 2.73 0.23 0.30 0.03 0.00 0.00 0.00 0.00 0.00 0.00 0.00 0.00 0.00 0.00 0.00 0.00 0.00 0.00 0.00 0.00 0.00 0.00 0.00 0.00 0.00 0.00 0.00 0.00 0.00 0.00 0.00 0.00 0.00
0.00 0.00 0.00 0.00 0.00 0.00 0.00 0.05 1.78 2.38 3.07 1.01 0.01 0.32 0.04 0.00 0.00 0.00 0.00 0.00 0.00 0.00 0.00 0.00 0.00 0.00 0.00 0.00 0.00 0.00 0.00 0.00 0.00 0.00 0.00 0.00 0.00 0.00 0.00 0.00 0.00 0.00 0.00 0.00
0.32 0.46 0.00 0.00 0.00 0.01 0.00 0.06 0.64 1.00 0.62 0.26 0.02 0.71 0.00 0.00 0.00 0.00 0.00 0.00 0.00 0.00 0.00 0.00 0.00 0.00 0.00 0.00 0.00 0.00 0.00 0.00 0.00 0.00 0.00 0.00 0.00 0.00 0.00 0.00 0.00 0.00 0.00 0.00
0.11 0.02 0.00 0.00 0.00 0.00 0.00 0.12 0.00 0.70 0.74 0.64 0.35 0.01 0.00 0.00 0.00 0.00 0.00 0.00 0.00 0.00 0.00 0.00 0.00 0.00 0.00 0.00 0.00 0.00 0.00 0.00 0.00 0.00 0.00 0.00 0.00 0.00 0.00 0.00 0.00 0.00 0.00 0.00
0.02 0.16 0.00 0.00 0.00 0.00 0.00 0.00 0.48 0.81 1.61 0.90 0.42 0.21 0.08 0.01 0.01 0.00 0.00 0.00 0.00 0.00 0.00 0.00 0.00 0.00 0.00 0.00 0.00 0.00 0.00 0.00 0.00 0.00 0.00 0.00 0.00 0.00 0.00 0.00 0.00 0.00 0.00 0.00
0.00 0.12 0.02 0.00 0.03 0.10 0.08 0.12 0.03 0.18 0.37 0.54 0.35 0.20 0.02 0.17 0.06 0.04 0.00 0.00 0.00 0.00 0.00 0.00 0.00 0.00 0.00 0.00 0.00 0.00 0.00 0.00 0.00 0.00 0.00 0.00 0.00 0.00 0.00 0.00 0.00 0.00 0.00 0.00
0.00 0.08 1.02 0.05 0.00 0.00 0.02 0.02 0.03 0.70 0.27 0.17 0.26 0.17 0.00 0.01 0.02 0.03 0.03 0.00 0.00 0.00 0.00 0.00 0.00 0.00 0.00 0.00 0.00 0.00 0.00 0.00 0.00 0.00 0.00 0.00 0.00 0.00 0.00 0.00 0.00 0.00 0.00 0.00
0.04 0.89 1.97 1.02 0.51 0.02 0.01 0.02 0.01 0.05 0.12 0.31 1.21 0.17 0.00 0.00 0.00 0.00 0.02 0.03 0.00 0.00 0.00 0.00 0.00 0.00 0.00 0.00 0.00 0.00 0.00 0.00 0.00 0.00 0.00 0.00 0.00 0.00 0.00 0.00 0.00 0.00 0.00 0.00
nan 0.26 0.31 0.58 0.10 0.02 0.04 0.01 0.00 0.09 1.34 0.24 0.14 0.08 0.00 0.00 0.00 0.00 0.03 0.05 0.03 0.01 0.00 0.01 0.00 0.00 0.00 0.00 0.00 0.00 0.00 0.00 0.00 0.00 0.01 0.01 0.00 0.00 0.00 0.00 0.00 0.00 0.00 0.01
0.32 3.00 0.15 0.09 0.02 0.00 0.02 0.02 0.00 0.03 0.01 0.47 0.01 0.00 0.01 0.00 0.00 0.01 0.05 0.05 0.06 0.08 0.03 0.03 0.05 0.04 0.03 0.03 0.03 0.02 0.00 0.00 0.02 0.03 0.01 0.01 0.00 0.01 0.02 0.02 0.02 0.03 0.02 0.02
0.10 3.83 0.40 1.05 0.31 0.07 0.08 0.00 0.01 0.00 0.00 0.00 0.00 0.00 0.00 0.00 0.00 0.01 0.08 0.14 0.23 0.16 0.11 0.18 0.08 0.09 0.16 0.07 0.08 0.04 0.02 0.02 0.02 0.01 0.01 0.02 0.03 0.02 0.02 0.03 0.04 0.04 0.05 0.04
0.43 1.28 2.77 3.83 0.22 0.59 2.89 0.07 0.00 0.00 0.00 0.00 0.01 0.00 0.00 0.00 0.00 0.04 0.55 0.08 0.20 0.36 0.41 0.41 0.28 0.33 0.32 0.19 0.08 0.10 0.05 0.00 0.04 0.08 0.03 0.02 0.03 0.05 0.06 0.05 0.05 0.09 0.08 0.06
0.89 1.16 1.64 4.54 2.16 7.76 0.50 0.00 0.00 0.00 0.00 0.00 0.00 0.00 0.00 0.00 0.00 0.02 0.07 0.08 0.11 0.77 0.50 0.28 0.32 0.34 0.35 0.12 0.08 0.06 0.12 0.21 0.18 0.37 0.07 0.06 0.08 0.16 0.15 0.13 0.16 0.15 0.10 0.10
0.14 0.26 5.18 7.80 4.00 0.34 0.00 0.00 0.00 0.00 0.00 0.00 0.00 0.00 0.00 0.00 0.00 0.00 0.00 0.00 0.10 1.13 0.69 0.55 0.44 0.47 0.30 0.46 0.15 0.21 0.31 0.43 0.49 1.07 0.80 0.55 0.30 0.33 0.28 0.48 0.35 0.18 0.16 0.20
0.31 0.29 1.49 7.44 6.62 4.61 0.09 0.00 0.00 0.00 0.17 0.00 0.00 0.00 0.00 0.00 0.02 0.00 0.00 0.00 0.17 0.57 0.89 0.65 0.42 0.40 0.38 0.49 0.44 0.36 0.51 0.58 0.72 0.82 0.78 0.68 0.66 0.43 0.52 0.49 0.53 0.46 0.15 0.31
2.42 4.29 6.03 4.66 5.44 1.86 0.00 0.00 0.00 0.49 0.01 0.00 0.00 0.00 0.00 0.00 0.00 0.00 0.00 0.00 0.09 0.77 0.83 0.40 0.45 0.53 0.70 0.57 0.30 0.75 0.75 0.90 0.79 0.81 0.84 0.75 0.74 0.97 0.63 0.69 0.54 0.49 0.64 0.50
0.66 2.00 4.46 3.83 5.65 5.43 0.00 0.00 0.01 0.02 0.00 0.00 0.00 0.00 0.00 0.00 0.00 0.00 0.00 0.00 0.02 0.49 0.58 0.65 0.66 0.71 0.49 0.30 0.25 0.68 0.76 0.97 0.63 0.61 0.86 0.97 1.00 1.00 0.89 1.07 0.90 1.02 0.74 0.83
0.84 0.14 0.88 0.27 0.64 0.00 0.00 0.00 0.00 0.00 0.00 0.00 0.00 0.00 0.00 0.00 0.00 0.00 0.00 0.00 0.00 0.08 0.41 0.54 0.70 0.48 0.47 0.48 0.26 0.28 0.82 0.49 0.62 0.70 1.17 1.05 0.94 0.88 0.75 0.97 0.76 1.21 0.79 1.00
0.03 0.00 0.41 0.21 0.00 0.00 0.00 0.00 0.00 0.00 0.00 0.00 0.00 0.00 0.00 0.00 0.00 0.00 0.00 0.00 0.00 0.01 0.04 0.20 0.16 0.37 0.48 0.43 0.49 0.68 0.65 0.34 0.92 1.18 0.89 0.61 0.63 0.66 0.62 0.83 0.92 1.19 1.12 0.99
0.01 0.02 0.04 0.16 0.00 0.00 0.00 0.00 0.00 0.00 0.00 0.00 0.00 0.00 0.00 0.00 0.01 0.01 0.02 0.02 0.01 0.01 0.02 0.04 0.06 0.07 0.26 0.20 0.32 0.46 0.41 0.23 0.47 0.64 0.49 0.47 0.65 0.73 0.60 0.68 0.92 0.79 0.74 0.84
0.00 0.00 0.06 0.09 0.00 0.00 0.00 0.00 0.00 0.00 0.00 0.00 0.00 0.01 0.01 0.01 0.01 0.02 0.02 0.01 0.02 0.03 0.04 0.07 0.09 0.14 0.19 0.25 0.29 0.38 0.52 0.43 0.46 0.23 0.48 0.52 0.55 0.61 0.60 0.55 0.66 nan nan nan
SL_Ratio
nan nan nan nan nan nan nan 5.0 3.3 nan nan nan nan nan nan nan nan nan nan nan nan nan nan nan nan nan nan nan nan nan nan nan nan nan nan nan nan nan nan nan nan nan nan nan
nan 5.0 nan nan nan nan nan 3.4 3.6 2.5 nan nan nan nan nan nan nan nan nan nan nan nan nan nan nan nan nan nan nan nan nan nan nan nan nan nan nan nan nan nan nan nan nan nan
nan nan nan nan nan nan nan 3.6 3.7 3.4 0.0 nan nan 4.1 nan nan nan nan nan nan nan nan nan nan nan nan nan nan nan nan nan nan nan nan nan nan nan nan nan nan nan nan nan nan
nan nan nan nan nan nan 4.7 nan nan 3.7 4.3 5.6 3.7 5.9 3.0 nan nan nan nan nan nan nan nan nan nan nan nan nan nan nan nan nan nan nan nan nan nan nan nan nan nan nan nan nan
nan nan nan nan nan nan 4.5 nan nan nan 4.0 4.7 4.6 5.8 nan nan nan nan nan nan nan nan nan nan nan nan nan nan nan nan nan nan nan nan nan nan nan nan nan nan nan nan nan nan
nan nan nan nan nan nan nan nan nan 4.0 4.2 5.8 4.9 4.3 4.8 nan nan nan nan nan nan nan nan nan nan nan nan nan nan nan nan nan nan nan nan nan nan nan nan nan nan nan nan nan
nan nan nan nan nan nan 3.3 4.3 5.4 5.2 5.9 5.9 5.0 5.0 4.8 nan nan nan nan nan nan nan nan nan nan nan nan nan nan nan nan nan nan nan nan nan nan nan nan nan nan nan nan nan
3.8 4.3 nan nan 5.0 2.9 5.0 4.9 5.8 8.1 6.8 6.1 3.8 5.7 nan nan nan nan nan nan nan nan nan nan nan nan nan nan nan nan nan nan nan nan nan nan nan nan nan nan nan nan nan nan
4.8 4.5 nan nan nan nan 3.3 3.6 nan 7.0 5.6 6.6 4.9 5.0 nan nan nan nan nan nan nan nan nan nan nan nan nan nan nan nan nan nan nan nan nan nan nan nan nan nan nan nan nan nan
4.5 6.1 nan nan nan nan nan nan 5.7 4.8 7.3 7.5 6.4 5.7 4.3 2.9 3.5 nan nan nan nan nan nan nan nan nan nan nan nan nan nan nan nan nan nan nan nan nan nan nan nan nan nan nan
5.0 5.7 3.7 3.3 3.7 4.6 4.1 3.2 4.5 5.4 5.6 7.5 7.2 6.7 3.0 3.8 4.0 3.8 3.8 nan nan nan nan nan nan nan nan nan nan nan nan nan nan nan nan nan nan nan nan nan nan nan nan nan
4.2 4.7 4.5 4.2 nan nan 3.6 4.5 4.8 6.0 6.5 5.3 6.5 7.8 nan 3.5 3.5 3.3 3.2 nan nan nan nan nan nan nan nan nan nan nan nan nan nan nan nan nan nan nan nan nan nan nan nan nan
4.5 4.3 5.3 5.0 6.0 2.9 4.4 4.5 4.3 5.1 5.0 6.3 6.8 6.7 nan nan nan nan 3.4 3.8 3.6 nan nan nan nan nan nan nan nan nan nan nan nan nan nan nan nan nan nan nan nan nan nan nan
nan 5.2 6.4 6.6 5.8 4.7 5.2 4.3 nan 6.9 5.3 4.9 5.0 5.9 5.0 nan nan 3.3 3.8 4.0 4.1 4.1 5.0 3.3 nan nan nan nan nan 5.0 nan nan nan 5.0 5.0 5.0 4.0 nan nan nan 4.2 nan nan 4.4
4.3 3.5 5.4 5.0 4.1 4.2 4.5 4.5 3.3 4.6 4.2 7.7 3.9 5.0 4.6 nan nan 3.8 4.2 4.0 4.1 4.1 3.7 3.6 3.5 3.4 3.7 3.8 4.0 4.1 4.0 5.0 4.4 4.7 4.5 4.4 nan 4.2 3.3 2.7 2.6 2.5 2.8 2.9
5.8 4.2 4.8 4.9 5.9 4.6 4.6 5.0 4.2 3.8 nan nan nan nan nan nan nan 3.6 4.2 4.8 4.4 4.7 4.2 4.0 3.5 3.6 3.6 3.9 4.4 3.9 4.6 4.6 5.0 5.6 5.3 3.7 3.6 3.5 2.7 2.9 3.4 3.7 3.8 3.9
4.9 3.6 3.8 4.9 4.9 5.2 5.7 4.2 3.3 nan nan nan 5.6 nan nan nan nan 4.4 4.8 4.7 5.1 5.2 5.1 4.6 4.5 4.3 4.0 4.4 4.1 4.6 4.6 5.0 5.2 4.8 5.1 3.6 3.1 3.3 3.5 3.8 3.8 3.9 3.9 4.0
5.1 3.8 3.5 4.9 4.9 6.1 4.9 nan nan nan nan nan nan nan nan nan nan 4.4 4.4 4.8 4.8 5.4 5.3 4.6 4.6 4.3 4.0 3.8 4.1 4.2 4.0 3.8 3.3 4.2 3.8 3.8 3.2 3.6 3.9 4.0 4.1 4.0 3.9 4.1
5.0 6.2 5.3 5.4 6.0 5.3 5.0 nan nan 3.3 2.5 nan nan nan nan nan nan nan nan nan 4.9 5.5 4.4 4.5 4.0 3.9 4.1 4.4 4.1 4.8 4.7 3.9 3.9 3.3 4.0 4.0 3.7 3.7 4.0 4.1 4.3 4.0 4.0 4.1
7.6 6.7 4.9 5.0 5.5 6.5 5.9 nan nan nan 4.5 nan nan nan nan nan 2.5 nan nan nan 5.3 4.5 4.1 4.3 3.9 4.0 4.6 4.5 3.8 4.7 4.7 4.8 4.5 3.8 3.8 3.7 3.4 3.7 4.3 4.3 4.2 3.5 3.5 3.6
6.0 5.2 5.7 5.7 5.5 5.1 2.5 nan nan 6.3 4.7 nan nan nan nan nan nan nan nan nan 4.6 5.6 5.2 3.8 3.8 4.5 4.7 4.2 4.7 5.1 5.3 5.4 4.6 4.2 3.9 4.0 3.7 4.0 3.6 3.4 3.4 3.5 3.5 3.5
6.9 6.5 6.0 6.1 5.9 6.2 3.0 4.2 4.6 2.6 3.3 2.5 nan nan nan nan nan nan 3.8 nan 4.4 6.1 5.4 4.0 4.4 4.6 4.4 4.3 4.9 5.6 5.6 5.0 4.5 4.5 4.6 4.5 4.4 4.3 3.7 3.6 3.8 3.7 3.6 4.2
6.4 5.6 4.6 5.4 4.9 nan 2.5 nan nan nan nan nan nan nan nan nan nan nan nan nan nan 5.9 5.6 4.3 4.8 4.8 4.4 4.6 5.4 5.4 5.3 4.9 4.9 5.2 5.1 5.0 4.7 4.3 4.1 3.8 4.6 4.5 4.0 4.5
3.2 5.8 4.0 5.6 nan nan nan nan nan nan nan nan nan nan nan nan nan 0.0 5.0 nan 5.0 3.9 5.1 5.1 4.9 5.4 5.4 5.2 5.7 5.5 5.1 5.2 3.8 4.7 5.4 5.2 5.3 4.9 5.0 4.2 4.0 3.9 4.6 5.1
3.1 2.4 3.6 4.7 nan nan nan nan nan nan nan 2.5 2.5 2.0 nan nan 2.7 2.7 3.3 3.4 3.8 4.5 4.9 5.1 5.0 5.2 5.7 6.0 6.2 6.0 5.0 4.2 5.3 5.5 6.0 5.8 5.2 5.2 5.7 5.8 5.2 5.3 5.4 4.4
nan 4.0 4.2 4.0 nan nan nan nan nan nan nan nan 2.5 2.9 3.3 2.9 2.8 3.5 3.9 3.8 4.2 4.7 5.7 6.7 7.1 7.7 7.3 7.3 7.8 7.8 6.4 6.1 5.6 6.8 6.1 5.8 5.6 5.6 5.6 5.8 6.1 nan nan nan